Weather History for Wink, TX

Change the Weather History Date:

Monday, April 8, 2013

  Actual Average Record
Temperature  
Mean Temperature 70 °F -  
Max Temperature 91 °F 78 °F 97 °F (1963)
Min Temperature 48 °F 45 °F 30 °F (1973)
Cooling Degree Days 4    
Growing Degree Days 20 (Base 50)    
Moisture  
Dew Point 25 °F    
Average Humidity 23    
Maximum Humidity 71    
Minimum Humidity 7    
Precipitation  
Precipitation 0.00 in - - ()
Sea Level Pressure  
Sea Level Pressure 29.50 in    
Wind  
Wind Speed 9 mph (South)    
Max Wind Speed 23 mph    
Max Gust Speed 30 mph    
Visibility 10 miles    
Events      
Averages and records for this station are not official NWS values.
T = Trace of Precipitation, MM = Missing Value Source: NWS Daily Summary

Daily Weather History Graph

Daily Weather History Graph

Search for Another Location

Airport:

Trip Planner

Search our weather history database for the weather conditions in past years. The results will help you decide how hot, cold, wet, or windy it might be!

Date:

Astronomy

Apr. 08, 2013 Rise Set
Actual Time 7:32 AM CDT 8:17 PM CDT
Civil Twilight 7:07 AM CDT 8:42 PM CDT
Nautical Twilight 6:38 AM CDT 9:11 PM CDT
Astronomical Twilight 6:08 AM CDT 9:41 PM CDT
Moon 6:18 AM CDT (4/8) 6:57 PM CDT (4/8)
Length of Visible Light 13h 34m
Length of Day
12h 45m
Waning Crescent, 3% of the Moon is Illuminated
Apr 8
Waning Crescent
Apr 10
New
Apr 18
First Quarter
Apr 25
Full
May 2
Last Quarter

Hourly Weather History & Observations

Time (CDT) Temp. Dew Point Humidity Pressure Visibility Wind Dir Wind Speed Gust Speed Precip Events Conditions
12:53 AM 63.0 °F 17.1 °F 17% 29.58 in 10.0 mi SW 6.9 mph - N/A   Clear
1:53 AM 59.0 °F 19.0 °F 21% 29.59 in 10.0 mi South 5.8 mph - N/A   Clear
2:53 AM 55.9 °F 19.0 °F 24% 29.57 in 10.0 mi SSE 5.8 mph - N/A   Clear
3:53 AM 55.9 °F 19.0 °F 24% 29.57 in 10.0 mi South 4.6 mph - N/A   Clear
4:53 AM 50.0 °F 21.0 °F 32% 29.56 in 10.0 mi ENE 3.5 mph - N/A   Clear
5:53 AM 52.0 °F 35.1 °F 53% 29.56 in 10.0 mi ESE 3.5 mph - N/A   Clear
6:53 AM 51.1 °F 39.9 °F 66% 29.58 in 10.0 mi SE 5.8 mph - N/A   Clear
7:53 AM 48.9 °F 39.9 °F 71% 29.60 in 10.0 mi SSE 5.8 mph - N/A   Clear
8:53 AM 57.9 °F 33.1 °F 39% 29.62 in 10.0 mi South 3.5 mph - N/A   Clear
9:53 AM 69.1 °F 26.1 °F 20% 29.62 in 10.0 mi WSW 8.1 mph - N/A   Clear
10:53 AM 79.0 °F 25.0 °F 14% 29.59 in 10.0 mi West 13.8 mph - N/A   Clear
11:53 AM 82.9 °F 25.0 °F 12% 29.58 in 10.0 mi West 15.0 mph 25.3 mph N/A   Clear
12:53 PM 84.9 °F 25.0 °F 11% 29.55 in 10.0 mi WSW 23.0 mph 28.8 mph N/A   Clear
1:53 PM 87.1 °F 23.0 °F 10% 29.51 in 10.0 mi SW 20.7 mph 27.6 mph N/A   Clear
2:53 PM 88.0 °F 21.9 °F 9% 29.47 in 10.0 mi WSW 17.3 mph 26.5 mph N/A   Clear
3:53 PM 90.0 °F 21.9 °F 8% 29.43 in 10.0 mi South 19.6 mph 29.9 mph N/A   Clear
4:53 PM 91.0 °F 19.0 °F 7% 29.39 in 10.0 mi SW 17.3 mph 27.6 mph N/A   Clear
6:53 PM 90.0 °F 17.1 °F 7% 29.37 in 10.0 mi SW 20.7 mph 29.9 mph N/A   Clear
7:53 PM 87.1 °F 17.1 °F 8% 29.37 in 10.0 mi SSW 10.4 mph - N/A   Clear
8:53 PM 77.0 °F 18.0 °F 11% 29.36 in 10.0 mi South 9.2 mph - N/A   Clear
9:53 PM 73.9 °F 19.9 °F 13% 29.36 in 10.0 mi SSE 10.4 mph - N/A   Clear
10:53 PM 73.0 °F 23.0 °F 15% 29.36 in 10.0 mi SSE 16.1 mph - N/A   Clear
11:53 PM 75.0 °F 52.0 °F 44% 29.34 in 10.0 mi SSE 23.0 mph 29.9 mph N/A   Clear